User: anonymous   Login
Location: Unspecified
(0.0000°N, 0.0000°E)
Time: 11:49:14
(UTC+00:00)
Language:

CANX 3B (BRITE-ASRA) - Orbit

View from above orbital plane
View from above orbital plane
View from above satellite
View from above satellite

Ground track
Ground track

The orbit data is extracted from the following two-line orbital elements,

1 39091U 13009F   17057.59140105  .00000022  00000-0  23282-4 0  9995
2 39091  98.5597 263.4235 0009397 277.0503  82.9613 14.35015370209632
Epoch (UTC): 26 February 2017 14:11:37
Eccentricity: 0.0009397
inclination: 98.5597°
perigee height: 768 km
apogee height: 782 km
right ascension of ascending node: 263.4235°
argument of perigee: 277.0503°
revolutions per day: 14.35015370
mean anomaly at epoch: 82.9613°
orbit number at epoch: 20963

The dashed part of the orbit path shows where the satellite is in the earth's shadow,  

DLR